User: anonymous   Login
Location: Fort Wayne
(41.1310°N, 85.1290°W)
Time: 15:17:39
(UTC-05:00)
Language:

Cosmos 2082 - Orbit

View from above orbital plane
View from above orbital plane
View from above satellite
View from above satellite

Ground track
Ground track

The orbit data is extracted from the following two-line orbital elements,

1 20624U 90046A   16341.94852829 +.00000316 +00000-0 +19026-3 0  9996
2 20624 071.0415 256.9242 0016387 314.5669 045.4115 14.14215575369792
Epoch (UTC): 06 December 2016 22:45:52
Eccentricity: 0.0016387
inclination: 71.0415°
perigee height: 833 km
apogee height: 857 km
right ascension of ascending node: 256.9242°
argument of perigee: 314.5669°
revolutions per day: 14.14215575
mean anomaly at epoch: 45.4115°
orbit number at epoch: 36979

The dashed part of the orbit path shows where the satellite is in the earth's shadow,  

DLR